Home > Weather > Passo Fundo > Past weeks

Flag for Brazil Past Weather in Passo Fundo, Rio Grande do Sul, Brazil — Yesterday and Last 2 Weeks

Now
66 °F

Clear.


Feels Like: 66 °F
Forecast: 61 / 76 °F
Wind: 3 mph from East

Location: Porto Alegre Aero-Porto

Current Time: Aug 28, 2016 at 2:17:23 AM

Latest Report: Aug 28, 2016 at 1:00 AM


Visibility: 5 mi

Pressure: 29.80 "Hg (27.52 "Hg at 680m altitude)

Humidity: 88%

Dew Point: 63 °F

Location of Passo FundoLocation

Past Weather in Passo Fundo — Graph

°F

Passo Fundo Temperature Yesterday

Maximum temperature yesterday: 91 °F (at 2:00 PM)
Minimum temperature yesterday: 61 °F (at 6:00 AM)
Average temperature yesterday: 75 °F

High & Low Weather Summary for the Past Weeks

 TemperatureHumidityPressure
High91 °F (Aug 27, 2:00 PM)100% (Aug 13, 8:00 AM)30.36 "Hg (Aug 13, 8:00 AM)
Low43 °F (Aug 23, 6:00 AM)27% (Aug 23, 3:00 PM)29.62 "Hg (Aug 17, 12:00 AM)
Average61 °F71%30.00 "Hg
* Reported Aug 13 1:00 AM — Aug 28 1:00 AM, Passo Fundo, Weather by CustomWeather, © 2016

Note: Actual official high and low records may vary slightly from our data, if they occured in-between our weather recording intervals... More about our weather records

Advertising

Passo Fundo Weather History for the Previous 24 Hours

Scroll right to see more
 ConditionsComfort  
Time TempWeatherWind HumidityBarometerVisibility
1:00 AM
Sun, Aug 28
66 °FClear.3 mph88%29.80 "Hg5 mi
12:00 AM68 °FClear.2 mph88%29.83 "Hg5 mi
11:00 PM
Sat, Aug 27
70 °FClear.3 mph83%29.83 "Hg10 mi
10:00 PM70 °FClear.2 mph83%29.83 "Hg10 mi
9:00 PM73 °FClear.No wind74%29.83 "Hg10 mi
8:00 PM75 °FClear.2 mph69%29.80 "Hg10 mi
7:00 PM79 °FClear.3 mph58%29.80 "Hg10 mi
6:00 PM86 °FClear.3 mph43%29.77 "Hg10 mi
5:00 PM90 °FSunny.6 mph33%29.77 "Hg10 mi
4:00 PM90 °FSunny.7 mph38%29.80 "Hg10 mi
3:00 PM90 °FSunny.9 mph38%29.80 "Hg10 mi
2:00 PM91 °FPassing clouds.9 mph36%29.83 "HgN/A
1:00 PM90 °FPassing clouds.6 mph41%29.86 "HgN/A
12:00 PM86 °FSunny.6 mph46%29.89 "Hg10 mi
11:00 AM82 °FSunny.5 mph51%29.92 "Hg10 mi
10:00 AM79 °FSunny.2 mph54%29.92 "Hg10 mi
9:00 AM73 °FSunny.No wind65%29.95 "Hg10 mi
8:00 AM66 °FClear.2 mph94%29.95 "Hg5 mi
7:00 AM61 °FClear.No wind94%29.92 "Hg4 mi
6:00 AM61 °FFog.No wind94%29.89 "Hg3 mi
5:00 AM63 °FClear.No wind88%29.89 "Hg4 mi
4:00 AM63 °FClear.No wind94%29.89 "Hg4 mi
3:00 AM64 °FClear.2 mph88%29.92 "Hg6 mi
2:00 AM64 °FClear.3 mph88%29.92 "Hg6 mi
Weather by CustomWeather, © 2016

See weather overviewHow to use our weather pages